Tracking 21612 objects as of 20-Oct-2020
HD Live streaming from Space Station
objects crossing your sky now

TITAN 34B AGENA D DEB

Track TITAN 34B AGENA D DEB now!


NORAD ID: 25588
Int'l Code: 1983-078E
Perigee: 176.3 km
Apogee: 38,150.7 km
Inclination: 63.2 °
Period: 676.8 minutes
Semi major axis: 25534 km
RCS: Unknown
Launch date: July 31, 1983
Source: United States (US)
Launch site: AIR FORCE WESTERN TEST RANGE (AFWTR)

Note: This is SATELLITE DEBRIS
aabbcc
Your satellite tracking list
Your tracking list is empty




NASA's NSSDC Master Catalog

Two Line Element Set (TLE):
1 25588U 83078E   20292.11969523 +.00004522 -15599-6 +15525-3 0  9995
2 25588 063.2141 021.7786 7435892 272.7278 012.7765 02.12770522011492
Source of the keplerian elements: AFSPC